contact:dominique.lefevre@mio.osupytheas.fr, maurice.libes@osupytheas.fr, didier.mallarino@osupytheas.fr
Project:EMSO http://www.emso-fr.org/EMSO-France
Depth: 2436.0 m
Title:EMSO Ligure Ouest : Data MII capteur MICROCAT
DateTime_Computer,Latitude,Longitude,Temperature,Conductivity,Pressure,DateTime_Instrument
DateTime_Computer,Latitude,Longitude,degC,S m-1,dbar,DateTime_Instrument
2023-03-01T00:00:10Z,42.805,6.029,13.3032,4.60113,2470.624,2023-3-01T02:02:41Z
2023-03-01T00:03:13Z,42.805,6.029,13.3029,4.60125,2470.661,2023-3-01T02:05:44Z
2023-03-01T00:06:16Z,42.805,6.029,13.3026,4.60114,2470.646,2023-3-01T02:08:47Z
2023-03-01T00:09:19Z,42.805,6.029,13.3038,4.60134,2470.624,2023-3-01T02:11:51Z
2023-03-01T00:12:22Z,42.805,6.029,13.3036,4.60122,2470.684,2023-3-01T02:14:54Z
2023-03-01T00:15:25Z,42.805,6.029,13.3034,4.60107,2470.661,2023-3-01T02:17:57Z
2023-03-01T00:18:28Z,42.805,6.029,13.3038,4.60117,2470.661,2023-3-01T02:21:00Z
2023-03-01T00:21:31Z,42.805,6.029,13.3044,4.60110,2470.67,2023-3-01T02:24:03Z
2023-03-01T00:24:34Z,42.805,6.029,13.3033,4.60119,2470.646,2023-3-01T02:27:06Z
2023-03-01T00:27:37Z,42.805,6.029,13.3023,4.60112,2470.661,2023-3-01T02:30:09Z
2023-03-01T00:30:40Z,42.805,6.029,13.3036,4.60108,2470.646,2023-3-01T02:33:12Z
2023-03-01T00:33:44Z,42.805,6.029,13.3046,4.60108,2470.624,2023-3-01T02:36:15Z
2023-03-01T00:36:47Z,42.805,6.029,13.3039,4.60113,2470.684,2023-3-01T02:39:18Z
2023-03-01T00:39:50Z,42.805,6.029,13.3036,4.60106,2470.624,2023-3-01T02:42:21Z
2023-03-01T00:42:53Z,42.805,6.029,13.3035,4.60110,2470.633,2023-3-01T02:45:24Z
2023-03-01T00:45:56Z,42.805,6.029,13.3034,4.60115,2470.646,2023-3-01T02:48:27Z
2023-03-01T00:48:59Z,42.805,6.029,13.3028,4.60104,2470.661,2023-3-01T02:51:30Z
2023-03-01T00:52:02Z,42.805,6.029,13.3028,4.60102,2470.646,2023-3-01T02:54:34Z
2023-03-01T00:55:05Z,42.805,6.029,13.3034,4.60122,2470.67,2023-3-01T02:57:37Z
2023-03-01T00:58:08Z,42.805,6.029,13.3028,4.60116,2470.661,2023-3-01T03:00:40Z
2023-03-01T01:01:11Z,42.805,6.029,13.3034,4.60096,2470.67,2023-3-01T03:03:43Z
2023-03-01T01:04:14Z,42.805,6.029,13.3033,4.60101,2470.661,2023-3-01T03:06:46Z
2023-03-01T01:07:17Z,42.805,6.029,13.3035,4.60101,2470.67,2023-3-01T03:09:49Z
2023-03-01T01:10:20Z,42.805,6.029,13.3026,4.60106,2470.656,2023-3-01T03:12:52Z
2023-03-01T01:13:23Z,42.805,6.029,13.3026,4.60099,2470.67,2023-3-01T03:15:55Z
2023-03-01T01:16:27Z,42.805,6.029,13.3031,4.60092,2470.684,2023-3-01T03:18:58Z
2023-03-01T01:19:30Z,42.805,6.029,13.3035,4.60101,2470.646,2023-3-01T03:22:01Z
2023-03-01T01:22:33Z,42.805,6.029,13.3026,4.60098,2470.684,2023-3-01T03:25:04Z
2023-03-01T01:25:36Z,42.805,6.029,13.3037,4.60102,2470.684,2023-3-01T03:28:07Z
2023-03-01T01:28:39Z,42.805,6.029,13.3034,4.60109,2470.661,2023-3-01T03:31:10Z
2023-03-01T01:31:42Z,42.805,6.029,13.3028,4.60089,2470.646,2023-3-01T03:34:14Z
2023-03-01T01:34:45Z,42.805,6.029,13.3021,4.60088,2470.67,2023-3-01T03:37:17Z
2023-03-01T01:37:48Z,42.805,6.029,13.3024,4.60086,2470.693,2023-3-01T03:40:20Z
2023-03-01T01:40:51Z,42.805,6.029,13.3029,4.60122,2470.67,2023-3-01T03:43:23Z
2023-03-01T01:43:54Z,42.805,6.029,13.3029,4.60115,2470.707,2023-3-01T03:46:26Z
2023-03-01T01:46:57Z,42.805,6.029,13.3041,4.60114,2470.684,2023-3-01T03:49:29Z
2023-03-01T01:50:00Z,42.805,6.029,13.3041,4.60134,2470.661,2023-3-01T03:52:32Z
2023-03-01T01:53:03Z,42.805,6.029,13.3054,4.60129,2470.693,2023-3-01T03:55:35Z
2023-03-01T01:56:07Z,42.805,6.029,13.3024,4.60096,2470.693,2023-3-01T03:58:38Z
2023-03-01T01:59:10Z,42.805,6.029,13.3037,4.60111,2470.707,2023-3-01T04:01:41Z
2023-03-01T02:02:13Z,42.805,6.029,13.3030,4.60108,2470.693,2023-3-01T04:04:44Z
2023-03-01T02:05:16Z,42.805,6.029,13.3030,4.60139,2470.684,2023-3-01T04:07:47Z
2023-03-01T02:08:19Z,42.805,6.029,13.3045,4.60132,2470.67,2023-3-01T04:10:50Z
2023-03-01T02:11:22Z,42.805,6.029,13.3034,4.60160,2470.693,2023-3-01T04:13:54Z
2023-03-01T02:14:25Z,42.805,6.029,13.3041,4.60142,2470.707,2023-3-01T04:16:57Z
2023-03-01T02:17:28Z,42.805,6.029,13.3052,4.60135,2470.661,2023-3-01T04:20:00Z
2023-03-01T02:20:31Z,42.805,6.029,13.3052,4.60164,2470.67,2023-3-01T04:23:03Z
2023-03-01T02:23:34Z,42.805,6.029,13.3049,4.60138,2470.707,2023-3-01T04:26:06Z
2023-03-01T02:26:37Z,42.805,6.029,13.3044,4.60139,2470.693,2023-3-01T04:29:09Z
2023-03-01T02:29:40Z,42.805,6.029,13.3052,4.60150,2470.707,2023-3-01T04:32:12Z
2023-03-01T02:32:43Z,42.805,6.029,13.3031,4.60153,2470.707,2023-3-01T04:35:15Z
2023-03-01T02:35:47Z,42.805,6.029,13.3031,4.60142,2470.693,2023-3-01T04:38:18Z
2023-03-01T02:38:50Z,42.805,6.029,13.3048,4.60133,2470.707,2023-3-01T04:41:21Z
2023-03-01T02:41:53Z,42.805,6.029,13.3039,4.60128,2470.693,2023-3-01T04:44:24Z
2023-03-01T02:44:56Z,42.805,6.029,13.3039,4.60162,2470.67,2023-3-01T04:47:27Z
2023-03-01T02:47:59Z,42.805,6.029,13.3049,4.60122,2470.646,2023-3-01T04:50:30Z
2023-03-01T02:51:02Z,42.805,6.029,13.3054,4.60123,2470.684,2023-3-01T04:53:33Z
2023-03-01T02:54:05Z,42.805,6.029,13.3066,4.60124,2470.73,2023-3-01T04:56:37Z
2023-03-01T02:57:08Z,42.805,6.029,13.3031,4.60123,2470.67,2023-3-01T04:59:40Z
2023-03-01T03:00:11Z,42.805,6.029,13.3053,4.60099,2470.684,2023-3-01T05:02:43Z
2023-03-01T03:03:14Z,42.805,6.029,13.3031,4.60095,2470.67,2023-3-01T05:05:46Z
2023-03-01T03:06:17Z,42.805,6.029,13.3039,4.60106,2470.693,2023-3-01T05:08:49Z
2023-03-01T03:09:20Z,42.805,6.029,13.3051,4.60087,2470.693,2023-3-01T05:11:52Z
2023-03-01T03:12:23Z,42.805,6.029,13.3039,4.60101,2470.693,2023-3-01T05:14:55Z
2023-03-01T03:15:26Z,42.805,6.029,13.3063,4.60089,2470.67,2023-3-01T05:17:58Z
2023-03-01T03:18:30Z,42.805,6.029,13.3021,4.60076,2470.684,2023-3-01T05:21:01Z
2023-03-01T03:21:33Z,42.805,6.029,13.3020,4.60080,2470.67,2023-3-01T05:24:04Z
2023-03-01T03:24:36Z,42.805,6.029,13.3020,4.60090,2470.717,2023-3-01T05:27:07Z
2023-03-01T03:27:39Z,42.805,6.029,13.3019,4.60072,2470.67,2023-3-01T05:30:10Z
2023-03-01T03:30:42Z,42.805,6.029,13.3021,4.60071,2470.717,2023-3-01T05:33:14Z
2023-03-01T03:33:45Z,42.805,6.029,13.3017,4.60077,2470.693,2023-3-01T05:36:17Z
2023-03-01T03:36:48Z,42.805,6.029,13.3017,4.60077,2470.693,2023-3-01T05:39:20Z
2023-03-01T03:39:51Z,42.805,6.029,13.3021,4.60072,2470.707,2023-3-01T05:42:23Z
2023-03-01T03:42:54Z,42.805,6.029,13.3016,4.60073,2470.693,2023-3-01T05:45:26Z
2023-03-01T03:45:57Z,42.805,6.029,13.3015,4.60073,2470.707,2023-3-01T05:48:29Z
2023-03-01T03:49:00Z,42.805,6.029,13.3019,4.60072,2470.67,2023-3-01T05:51:32Z
2023-03-01T03:52:03Z,42.805,6.029,13.3020,4.60074,2470.693,2023-3-01T05:54:35Z
2023-03-01T03:55:07Z,42.805,6.029,13.3020,4.60074,2470.717,2023-3-01T05:57:38Z
2023-03-01T03:58:10Z,42.805,6.029,13.3018,4.60072,2470.73,2023-3-01T06:00:41Z
2023-03-01T04:01:13Z,42.805,6.029,13.3015,4.60072,2470.67,2023-3-01T06:03:44Z
2023-03-01T04:04:16Z,42.805,6.029,13.3021,4.60072,2470.67,2023-3-01T06:06:47Z
2023-03-01T04:07:19Z,42.805,6.029,13.3019,4.60072,2470.684,2023-3-01T06:09:50Z
2023-03-01T04:10:22Z,42.805,6.029,13.3019,4.60072,2470.67,2023-3-01T06:12:53Z
2023-03-01T04:13:25Z,42.805,6.029,13.3019,4.60072,2470.693,2023-3-01T06:15:57Z
2023-03-01T04:16:28Z,42.805,6.029,13.3019,4.60072,2470.693,2023-3-01T06:19:00Z
2023-03-01T04:19:31Z,42.805,6.029,13.3017,4.60075,2470.717,2023-3-01T06:22:03Z
2023-03-01T04:22:34Z,42.805,6.029,13.3019,4.60073,2470.67,2023-3-01T06:25:06Z
2023-03-01T04:25:37Z,42.805,6.029,13.3019,4.60072,2470.693,2023-3-01T06:28:09Z
2023-03-01T04:28:40Z,42.805,6.029,13.3023,4.60071,2470.693,2023-3-01T06:31:12Z
2023-03-01T04:31:43Z,42.805,6.029,13.3021,4.60074,2470.717,2023-3-01T06:34:15Z
2023-03-01T04:34:46Z,42.805,6.029,13.3013,4.60073,2470.693,2023-3-01T06:37:18Z
2023-03-01T04:37:50Z,42.805,6.029,13.3016,4.60076,2470.693,2023-3-01T06:40:21Z
2023-03-01T04:40:53Z,42.805,6.029,13.3015,4.60072,2470.707,2023-3-01T06:43:24Z
2023-03-01T04:43:56Z,42.805,6.029,13.3015,4.60072,2470.693,2023-3-01T06:46:27Z
2023-03-01T04:46:59Z,42.805,6.029,13.3017,4.60072,2470.717,2023-3-01T06:49:30Z
2023-03-01T04:50:02Z,42.805,6.029,13.3020,4.60072,2470.717,2023-3-01T06:52:33Z
2023-03-01T04:53:05Z,42.805,6.029,13.3012,4.60072,2470.693,2023-3-01T06:55:37Z
2023-03-01T04:56:08Z,42.805,6.029,13.3017,4.60072,2470.67,2023-3-01T06:58:40Z
2023-03-01T04:59:11Z,42.805,6.029,13.3016,4.60073,2470.693,2023-3-01T07:01:43Z
2023-03-01T05:02:14Z,42.805,6.029,13.3017,4.60082,2470.693,2023-3-01T07:04:46Z
2023-03-01T05:05:17Z,42.805,6.029,13.3019,4.60084,2470.67,2023-3-01T07:07:49Z
2023-03-01T05:08:20Z,42.805,6.029,13.3023,4.60072,2470.693,2023-3-01T07:10:52Z
2023-03-01T05:11:23Z,42.805,6.029,13.3019,4.60073,2470.67,2023-3-01T07:13:55Z
2023-03-01T05:14:26Z,42.805,6.029,13.3016,4.60072,2470.707,2023-3-01T07:16:58Z
2023-03-01T05:17:29Z,42.805,6.029,13.3019,4.60072,2470.633,2023-3-01T07:20:01Z
2023-03-01T05:20:33Z,42.805,6.029,13.3017,4.60077,2470.73,2023-3-01T07:23:04Z
2023-03-01T05:23:36Z,42.805,6.029,13.3019,4.60072,2470.707,2023-3-01T07:26:07Z
2023-03-01T05:26:39Z,42.805,6.029,13.3019,4.60071,2470.707,2023-3-01T07:29:10Z
2023-03-01T05:29:42Z,42.805,6.029,13.3018,4.60071,2470.693,2023-3-01T07:32:13Z
2023-03-01T05:32:45Z,42.805,6.029,13.3020,4.60072,2470.656,2023-3-01T07:35:17Z
2023-03-01T05:35:48Z,42.805,6.029,13.3018,4.60072,2470.717,2023-3-01T07:38:20Z
2023-03-01T05:38:51Z,42.805,6.029,13.3021,4.60079,2470.679,2023-3-01T07:41:23Z
2023-03-01T05:41:54Z,42.805,6.029,13.3016,4.60072,2470.717,2023-3-01T07:44:26Z
2023-03-01T05:44:57Z,42.805,6.029,13.3019,4.60071,2470.693,2023-3-01T07:47:29Z
2023-03-01T05:48:00Z,42.805,6.029,13.3016,4.60074,2470.717,2023-3-01T07:50:32Z
2023-03-01T05:51:03Z,42.805,6.029,13.3019,4.60074,2470.693,2023-3-01T07:53:35Z
2023-03-01T05:54:06Z,42.805,6.029,13.3020,4.60071,2470.67,2023-3-01T07:56:38Z
2023-03-01T05:57:09Z,42.805,6.029,13.3019,4.60072,2470.717,2023-3-01T07:59:41Z
2023-03-01T06:00:13Z,42.805,6.029,13.3021,4.60072,2470.661,2023-3-01T08:02:44Z
2023-03-01T06:03:16Z,42.805,6.029,13.3015,4.60072,2470.693,2023-3-01T08:05:47Z
2023-03-01T06:06:19Z,42.805,6.029,13.3016,4.60072,2470.684,2023-3-01T08:08:50Z
2023-03-01T06:09:22Z,42.805,6.029,13.3019,4.60072,2470.693,2023-3-01T08:11:53Z
2023-03-01T06:12:25Z,42.805,6.029,13.3020,4.60077,2470.693,2023-3-01T08:14:56Z
2023-03-01T06:15:28Z,42.805,6.029,13.3015,4.60070,2470.707,2023-3-01T08:18:00Z
2023-03-01T06:18:31Z,42.805,6.029,13.3015,4.60072,2470.67,2023-3-01T08:21:03Z
2023-03-01T06:21:34Z,42.805,6.029,13.3020,4.60072,2470.646,2023-3-01T08:24:06Z
2023-03-01T06:24:37Z,42.805,6.029,13.3014,4.60072,2470.693,2023-3-01T08:27:09Z
2023-03-01T06:27:40Z,42.805,6.029,13.3021,4.60070,2470.646,2023-3-01T08:30:12Z
2023-03-01T06:30:43Z,42.805,6.029,13.3017,4.60070,2470.693,2023-3-01T08:33:15Z
2023-03-01T06:33:46Z,42.805,6.029,13.3018,4.60074,2470.67,2023-3-01T08:36:18Z
2023-03-01T06:36:49Z,42.805,6.029,13.3021,4.60073,2470.693,2023-3-01T08:39:21Z
2023-03-01T06:39:52Z,42.805,6.029,13.3016,4.60072,2470.661,2023-3-01T08:42:24Z
2023-03-01T06:42:56Z,42.805,6.029,13.3017,4.60070,2470.661,2023-3-01T08:45:27Z
2023-03-01T06:45:59Z,42.805,6.029,13.3019,4.60070,2470.693,2023-3-01T08:48:30Z
2023-03-01T06:49:02Z,42.805,6.029,13.3017,4.60072,2470.693,2023-3-01T08:51:33Z
2023-03-01T06:52:05Z,42.805,6.029,13.3017,4.60069,2470.707,2023-3-01T08:54:37Z
2023-03-01T06:55:08Z,42.805,6.029,13.3024,4.60070,2470.684,2023-3-01T08:57:40Z
2023-03-01T06:58:11Z,42.805,6.029,13.3017,4.60073,2470.693,2023-3-01T09:00:43Z
2023-03-01T07:01:14Z,42.805,6.029,13.3018,4.60072,2470.684,2023-3-01T09:03:46Z
2023-03-01T07:04:17Z,42.805,6.029,13.3020,4.60074,2470.684,2023-3-01T09:06:49Z
2023-03-01T07:07:20Z,42.805,6.029,13.3017,4.60072,2470.67,2023-3-01T09:09:52Z
2023-03-01T07:10:23Z,42.805,6.029,13.3021,4.60072,2470.67,2023-3-01T09:12:55Z
2023-03-01T07:13:26Z,42.805,6.029,13.3019,4.60072,2470.693,2023-3-01T09:15:58Z
2023-03-01T07:16:29Z,42.805,6.029,13.3015,4.60072,2470.707,2023-3-01T09:19:01Z
2023-03-01T07:19:32Z,42.805,6.029,13.3020,4.60072,2470.646,2023-3-01T09:22:04Z
2023-03-01T07:22:36Z,42.805,6.029,13.3018,4.60072,2470.661,2023-3-01T09:25:07Z
2023-03-01T07:25:39Z,42.805,6.029,13.3021,4.60072,2470.67,2023-3-01T09:28:10Z
2023-03-01T07:28:42Z,42.805,6.029,13.3017,4.60073,2470.67,2023-3-01T09:31:13Z
2023-03-01T07:31:45Z,42.805,6.029,13.3017,4.60071,2470.684,2023-3-01T09:34:17Z
2023-03-01T07:34:48Z,42.805,6.029,13.3016,4.60072,2470.693,2023-3-01T09:37:20Z
2023-03-01T07:37:51Z,42.805,6.029,13.3015,4.60072,2470.624,2023-3-01T09:40:23Z
2023-03-01T07:40:54Z,42.805,6.029,13.3017,4.60072,2470.693,2023-3-01T09:43:26Z
2023-03-01T07:43:57Z,42.805,6.029,13.3017,4.60073,2470.684,2023-3-01T09:46:29Z
2023-03-01T07:47:00Z,42.805,6.029,13.3019,4.60073,2470.684,2023-3-01T09:49:32Z
2023-03-01T07:50:03Z,42.805,6.029,13.3018,4.60072,2470.67,2023-3-01T09:52:35Z
2023-03-01T07:53:06Z,42.805,6.029,13.3020,4.60072,2470.661,2023-3-01T09:55:38Z
2023-03-01T07:56:09Z,42.805,6.029,13.3021,4.60071,2470.684,2023-3-01T09:58:41Z
2023-03-01T07:59:12Z,42.805,6.029,13.3015,4.60072,2470.67,2023-3-01T10:01:44Z
2023-03-01T08:02:16Z,42.805,6.029,13.3017,4.60072,2470.684,2023-3-01T10:04:47Z
2023-03-01T08:05:19Z,42.805,6.029,13.3016,4.60072,2470.646,2023-3-01T10:07:50Z
2023-03-01T08:08:22Z,42.805,6.029,13.3021,4.60072,2470.707,2023-3-01T10:10:53Z
2023-03-01T08:11:25Z,42.805,6.029,13.3019,4.60072,2470.693,2023-3-01T10:13:57Z
2023-03-01T08:14:28Z,42.805,6.029,13.3019,4.60072,2470.679,2023-3-01T10:17:00Z
2023-03-01T08:17:31Z,42.805,6.029,13.3018,4.60072,2470.646,2023-3-01T10:20:03Z
2023-03-01T08:20:34Z,42.805,6.029,13.3019,4.60074,2470.67,2023-3-01T10:23:06Z
2023-03-01T08:23:37Z,42.805,6.029,13.3021,4.60074,2470.646,2023-3-01T10:26:09Z
2023-03-01T08:26:40Z,42.805,6.029,13.3019,4.60072,2470.661,2023-3-01T10:29:12Z
2023-03-01T08:29:43Z,42.805,6.029,13.3016,4.60073,2470.684,2023-3-01T10:32:15Z
2023-03-01T08:32:46Z,42.805,6.029,13.3019,4.60073,2470.67,2023-3-01T10:35:18Z
2023-03-01T08:35:49Z,42.805,6.029,13.3024,4.60074,2470.633,2023-3-01T10:38:21Z
2023-03-01T08:38:53Z,42.805,6.029,13.3021,4.60076,2470.624,2023-3-01T10:41:24Z
2023-03-01T08:41:56Z,42.805,6.029,13.3021,4.60074,2470.646,2023-3-01T10:44:27Z
2023-03-01T08:44:59Z,42.805,6.029,13.3021,4.60074,2470.656,2023-3-01T10:47:30Z
2023-03-01T08:48:02Z,42.805,6.029,13.3028,4.60079,2470.646,2023-3-01T10:50:34Z
2023-03-01T08:51:05Z,42.805,6.029,13.3021,4.60074,2470.67,2023-3-01T10:53:37Z
2023-03-01T08:54:08Z,42.805,6.029,13.3026,4.60084,2470.67,2023-3-01T10:56:40Z
2023-03-01T08:57:11Z,42.805,6.029,13.3025,4.60081,2470.661,2023-3-01T10:59:43Z
2023-03-01T09:00:14Z,42.805,6.029,13.3027,4.60074,2470.624,2023-3-01T11:02:46Z
2023-03-01T09:03:17Z,42.805,6.029,13.3023,4.60074,2470.67,2023-3-01T11:05:49Z
2023-03-01T09:06:20Z,42.805,6.029,13.3031,4.60079,2470.661,2023-3-01T11:08:52Z
2023-03-01T09:09:23Z,42.805,6.029,13.3035,4.60097,2470.684,2023-3-01T11:11:55Z
2023-03-01T09:12:26Z,42.805,6.029,13.3024,4.60088,2470.684,2023-3-01T11:14:58Z
2023-03-01T09:15:29Z,42.805,6.029,13.3026,4.60077,2470.67,2023-3-01T11:18:01Z
2023-03-01T09:18:33Z,42.805,6.029,13.3039,4.60101,2470.624,2023-3-01T11:21:04Z
2023-03-01T09:21:36Z,42.805,6.029,13.3032,4.60088,2470.67,2023-3-01T11:24:07Z
2023-03-01T09:24:39Z,42.805,6.029,13.3038,4.60086,2470.646,2023-3-01T11:27:10Z
2023-03-01T09:27:42Z,42.805,6.029,13.3033,4.60114,2470.637,2023-3-01T11:30:13Z
2023-03-01T09:30:45Z,42.805,6.029,13.3043,4.60096,2470.646,2023-3-01T11:33:17Z
2023-03-01T09:33:48Z,42.805,6.029,13.3036,4.60098,2470.684,2023-3-01T11:36:20Z
2023-03-01T09:36:51Z,42.805,6.029,13.3022,4.60074,2470.646,2023-3-01T11:39:23Z
2023-03-01T09:39:54Z,42.805,6.029,13.3029,4.60096,2470.646,2023-3-01T11:42:26Z
2023-03-01T09:42:57Z,42.805,6.029,13.3039,4.60087,2470.661,2023-3-01T11:45:29Z
2023-03-01T09:46:00Z,42.805,6.029,13.3042,4.60097,2470.684,2023-3-01T11:48:32Z
2023-03-01T09:49:03Z,42.805,6.029,13.3031,4.60074,2470.646,2023-3-01T11:51:35Z
2023-03-01T09:52:06Z,42.805,6.029,13.3019,4.60073,2470.684,2023-3-01T11:54:38Z
2023-03-01T09:55:09Z,42.805,6.029,13.3017,4.60078,2470.661,2023-3-01T11:57:41Z
2023-03-01T09:58:13Z,42.805,6.029,13.3024,4.60075,2470.67,2023-3-01T12:00:44Z
2023-03-01T10:01:16Z,42.805,6.029,13.3020,4.60073,2470.684,2023-3-01T12:03:47Z
2023-03-01T10:04:19Z,42.805,6.029,13.3021,4.60074,2470.646,2023-3-01T12:06:50Z
2023-03-01T10:07:22Z,42.805,6.029,13.3035,4.60092,2470.646,2023-3-01T12:09:54Z
2023-03-01T10:10:25Z,42.805,6.029,13.3032,4.60105,2470.633,2023-3-01T12:12:57Z
2023-03-01T10:13:28Z,42.805,6.029,13.3031,4.60094,2470.661,2023-3-01T12:16:00Z
2023-03-01T10:16:31Z,42.805,6.029,13.3027,4.60080,2470.67,2023-3-01T12:19:03Z
2023-03-01T10:19:34Z,42.805,6.029,13.3039,4.60117,2470.684,2023-3-01T12:22:06Z
2023-03-01T10:22:37Z,42.805,6.029,13.3021,4.60075,2470.67,2023-3-01T12:25:09Z
2023-03-01T10:25:40Z,42.805,6.029,13.3021,4.60074,2470.67,2023-3-01T12:28:12Z
2023-03-01T10:28:43Z,42.805,6.029,13.3019,4.60073,2470.67,2023-3-01T12:31:15Z
2023-03-01T10:31:46Z,42.805,6.029,13.3020,4.60074,2470.646,2023-3-01T12:34:18Z
2023-03-01T10:34:49Z,42.805,6.029,13.3015,4.60073,2470.67,2023-3-01T12:37:21Z
2023-03-01T10:37:53Z,42.805,6.029,13.3019,4.60074,2470.67,2023-3-01T12:40:24Z
2023-03-01T10:40:56Z,42.805,6.029,13.3019,4.60073,2470.67,2023-3-01T12:43:27Z
2023-03-01T10:43:59Z,42.805,6.029,13.3020,4.60077,2470.67,2023-3-01T12:46:30Z
2023-03-01T10:47:02Z,42.805,6.029,13.3019,4.60074,2470.624,2023-3-01T12:49:34Z
2023-03-01T10:50:05Z,42.805,6.029,13.3019,4.60074,2470.646,2023-3-01T12:52:37Z
2023-03-01T10:53:08Z,42.805,6.029,13.3019,4.60073,2470.646,2023-3-01T12:55:40Z
2023-03-01T10:56:11Z,42.805,6.029,13.3015,4.60072,2470.67,2023-3-01T12:58:43Z
2023-03-01T10:59:14Z,42.805,6.029,13.3019,4.60073,2470.646,2023-3-01T13:01:46Z
2023-03-01T11:02:17Z,42.805,6.029,13.3019,4.60074,2470.624,2023-3-01T13:04:49Z
2023-03-01T11:05:20Z,42.805,6.029,13.3017,4.60076,2470.646,2023-3-01T13:07:52Z
2023-03-01T11:08:23Z,42.805,6.029,13.3019,4.60073,2470.684,2023-3-01T13:10:55Z
2023-03-01T11:11:26Z,42.805,6.029,13.3020,4.60072,2470.67,2023-3-01T13:13:58Z
2023-03-01T11:14:30Z,42.805,6.029,13.3017,4.60074,2470.633,2023-3-01T13:17:01Z
2023-03-01T11:17:33Z,42.805,6.029,13.3019,4.60074,2470.661,2023-3-01T13:20:04Z
2023-03-01T11:20:36Z,42.805,6.029,13.3019,4.60073,2470.67,2023-3-01T13:23:07Z
2023-03-01T11:23:39Z,42.805,6.029,13.3017,4.60072,2470.646,2023-3-01T13:26:11Z
2023-03-01T11:26:42Z,42.805,6.029,13.3019,4.60072,2470.646,2023-3-01T13:29:14Z
2023-03-01T11:29:45Z,42.805,6.029,13.3020,4.60078,2470.646,2023-3-01T13:32:17Z
2023-03-01T11:32:48Z,42.805,6.029,13.3018,4.60073,2470.646,2023-3-01T13:35:20Z
2023-03-01T11:35:51Z,42.805,6.029,13.3019,4.60074,2470.624,2023-3-01T13:38:23Z
2023-03-01T11:38:54Z,42.805,6.029,13.3015,4.60075,2470.624,2023-3-01T13:41:26Z
2023-03-01T11:41:57Z,42.805,6.029,13.3019,4.60073,2470.661,2023-3-01T13:44:29Z
2023-03-01T11:45:00Z,42.805,6.029,13.3017,4.60074,2470.646,2023-3-01T13:47:32Z
2023-03-01T11:48:03Z,42.805,6.029,13.3015,4.60078,2470.646,2023-3-01T13:50:35Z
2023-03-01T11:51:06Z,42.805,6.029,13.3019,4.60074,2470.646,2023-3-01T13:53:38Z
2023-03-01T11:54:10Z,42.805,6.029,13.3020,4.60073,2470.646,2023-3-01T13:56:41Z
2023-03-01T11:57:13Z,42.805,6.029,13.3016,4.60074,2470.646,2023-3-01T13:59:44Z
2023-03-01T12:00:16Z,42.805,6.029,13.3018,4.60074,2470.67,2023-3-01T14:02:48Z
2023-03-01T12:03:19Z,42.805,6.029,13.3019,4.60074,2470.624,2023-3-01T14:05:51Z
2023-03-01T12:06:22Z,42.805,6.029,13.3015,4.60073,2470.67,2023-3-01T14:08:54Z
2023-03-01T12:09:25Z,42.805,6.029,13.3021,4.60072,2470.661,2023-3-01T14:11:57Z
2023-03-01T12:12:28Z,42.805,6.029,13.3015,4.60075,2470.67,2023-3-01T14:15:00Z
2023-03-01T12:15:31Z,42.805,6.029,13.3019,4.60074,2470.661,2023-3-01T14:18:03Z
2023-03-01T12:18:34Z,42.805,6.029,13.3016,4.60072,2470.67,2023-3-01T14:21:06Z
2023-03-01T12:21:37Z,42.805,6.029,13.3016,4.60072,2470.661,2023-3-01T14:24:09Z
2023-03-01T12:24:40Z,42.805,6.029,13.3014,4.60072,2470.67,2023-3-01T14:27:12Z
2023-03-01T12:27:43Z,42.805,6.029,13.3019,4.60072,2470.646,2023-3-01T14:30:15Z
2023-03-01T12:30:47Z,42.805,6.029,13.3019,4.60074,2470.624,2023-3-01T14:33:18Z
2023-03-01T12:33:50Z,42.805,6.029,13.3019,4.60074,2470.661,2023-3-01T14:36:21Z
2023-03-01T12:36:53Z,42.805,6.029,13.3018,4.60072,2470.624,2023-3-01T14:39:24Z
2023-03-01T12:39:56Z,42.805,6.029,13.3017,4.60073,2470.646,2023-3-01T14:42:28Z
2023-03-01T12:42:59Z,42.805,6.029,13.3015,4.60072,2470.624,2023-3-01T14:45:31Z
2023-03-01T12:46:02Z,42.805,6.029,13.3016,4.60072,2470.661,2023-3-01T14:48:34Z
2023-03-01T12:49:05Z,42.805,6.029,13.3016,4.60077,2470.661,2023-3-01T14:51:37Z
2023-03-01T12:52:08Z,42.805,6.029,13.3019,4.60077,2470.67,2023-3-01T14:54:40Z
2023-03-01T12:55:11Z,42.805,6.029,13.3022,4.60078,2470.637,2023-3-01T14:57:43Z
2023-03-01T12:58:14Z,42.805,6.029,13.3018,4.60076,2470.624,2023-3-01T15:00:46Z
2023-03-01T13:01:17Z,42.805,6.029,13.3017,4.60075,2470.646,2023-3-01T15:03:49Z
2023-03-01T13:04:20Z,42.805,6.029,13.3019,4.60074,2470.661,2023-3-01T15:06:52Z
2023-03-01T13:07:23Z,42.805,6.029,13.3016,4.60075,2470.637,2023-3-01T15:09:55Z
2023-03-01T13:10:27Z,42.805,6.029,13.3018,4.60073,2470.646,2023-3-01T15:12:58Z
2023-03-01T13:13:30Z,42.805,6.029,13.3019,4.60072,2470.61,2023-3-01T15:16:01Z
2023-03-01T13:16:33Z,42.805,6.029,13.3021,4.60072,2470.646,2023-3-01T15:19:05Z
2023-03-01T13:19:36Z,42.805,6.029,13.3019,4.60073,2470.661,2023-3-01T15:22:08Z
2023-03-01T13:22:39Z,42.805,6.029,13.3018,4.60072,2470.637,2023-3-01T15:25:11Z
2023-03-01T13:25:42Z,42.805,6.029,13.3019,4.60077,2470.67,2023-3-01T15:28:14Z
2023-03-01T13:28:45Z,42.805,6.029,13.3016,4.60072,2470.646,2023-3-01T15:31:17Z
2023-03-01T13:31:48Z,42.805,6.029,13.3024,4.60073,2470.67,2023-3-01T15:34:20Z
2023-03-01T13:34:51Z,42.805,6.029,13.3015,4.60074,2470.624,2023-3-01T15:37:23Z
2023-03-01T13:37:54Z,42.805,6.029,13.3017,4.60074,2470.624,2023-3-01T15:40:26Z
2023-03-01T13:40:57Z,42.805,6.029,13.3020,4.60072,2470.661,2023-3-01T15:43:29Z
2023-03-01T13:44:00Z,42.805,6.029,13.3021,4.60073,2470.624,2023-3-01T15:46:32Z
2023-03-01T13:47:03Z,42.805,6.029,13.3019,4.60073,2470.646,2023-3-01T15:49:35Z
2023-03-01T13:50:07Z,42.805,6.029,13.3018,4.60073,2470.646,2023-3-01T15:52:38Z
2023-03-01T13:53:10Z,42.805,6.029,13.3020,4.60072,2470.646,2023-3-01T15:55:41Z
2023-03-01T13:56:13Z,42.805,6.029,13.3016,4.60073,2470.637,2023-3-01T15:58:45Z
2023-03-01T13:59:16Z,42.805,6.029,13.3022,4.60074,2470.624,2023-3-01T16:01:48Z
2023-03-01T14:02:19Z,42.805,6.029,13.3018,4.60075,2470.624,2023-3-01T16:04:51Z
2023-03-01T14:05:22Z,42.805,6.029,13.3019,4.60074,2470.624,2023-3-01T16:07:54Z
2023-03-01T14:08:25Z,42.805,6.029,13.3019,4.60076,2470.624,2023-3-01T16:10:57Z
2023-03-01T14:11:28Z,42.805,6.029,13.3021,4.60077,2470.646,2023-3-01T16:14:00Z
2023-03-01T14:14:31Z,42.805,6.029,13.3018,4.60078,2470.646,2023-3-01T16:17:03Z
2023-03-01T14:17:34Z,42.805,6.029,13.3019,4.60077,2470.624,2023-3-01T16:20:06Z
2023-03-01T14:20:37Z,42.805,6.029,13.3019,4.60075,2470.646,2023-3-01T16:23:09Z
2023-03-01T14:23:40Z,42.805,6.029,13.3021,4.60076,2470.646,2023-3-01T16:26:12Z
2023-03-01T14:26:44Z,42.805,6.029,13.3020,4.60075,2470.646,2023-3-01T16:29:15Z
2023-03-01T14:29:47Z,42.805,6.029,13.3018,4.60074,2470.661,2023-3-01T16:32:18Z
2023-03-01T14:32:50Z,42.805,6.029,13.3020,4.60074,2470.646,2023-3-01T16:35:22Z
2023-03-01T14:35:53Z,42.805,6.029,13.3018,4.60074,2470.646,2023-3-01T16:38:25Z
2023-03-01T14:38:56Z,42.805,6.029,13.3023,4.60084,2470.646,2023-3-01T16:41:28Z
2023-03-01T14:41:59Z,42.805,6.029,13.3039,4.60097,2470.646,2023-3-01T16:44:31Z
2023-03-01T14:45:02Z,42.805,6.029,13.3040,4.60095,2470.624,2023-3-01T16:47:34Z
2023-03-01T14:48:05Z,42.805,6.029,13.3043,4.60103,2470.637,2023-3-01T16:50:37Z
2023-03-01T14:51:08Z,42.805,6.029,13.3034,4.60132,2470.646,2023-3-01T16:53:40Z
2023-03-01T14:54:11Z,42.805,6.029,13.3032,4.60119,2470.661,2023-3-01T16:56:43Z
2023-03-01T14:57:14Z,42.805,6.029,13.3041,4.60135,2470.661,2023-3-01T16:59:46Z
2023-03-01T15:00:17Z,42.805,6.029,13.3043,4.60102,2470.624,2023-3-01T17:02:49Z
2023-03-01T15:03:20Z,42.805,6.029,13.3025,4.60079,2470.661,2023-3-01T17:05:52Z
2023-03-01T15:06:24Z,42.805,6.029,13.3027,4.60102,2470.624,2023-3-01T17:08:55Z
2023-03-01T15:09:27Z,42.805,6.029,13.3034,4.60087,2470.637,2023-3-01T17:11:58Z